Weather History for KS32 - September, 2013

Change the Weather History Date:

Thursday, September 12, 2013

  Actual Average (KJMS) Record (KJMS)
Temperature  
Mean Temperature 55 °F 59 °F  
Max Temperature 68 °F 72 °F 94 °F (1952)
Min Temperature 42 °F 46 °F 22 °F (1902)
Degree Days  
Heating Degree Days 10 7  
Month to date heating degree days 63  
Since 1 July heating degree days 129  
Cooling Degree Days 0 1  
Month to date cooling degree days 20  
Year to date cooling degree days 435  
Growing Degree Days 5 (Base 50)    
Moisture  
Dew Point 50 °F    
Average Humidity 83    
Maximum Humidity 100    
Minimum Humidity 49    
Precipitation  
Precipitation 0.06 in 0.07 in 0.89 in (1980)
Month to date precipitation 0.91  
Year to date precipitation 15.10  
Sea Level Pressure  
Sea Level Pressure 30.26 in    
Wind  
Wind Speed 3 mph (North)    
Max Wind Speed 10 mph    
Max Gust Speed -    
Visibility 10 miles    
Events Rain    
T = Trace of Precipitation, MM = Missing Value Source: NWS Daily Summary

Daily Weather History Graph

Daily Weather History Graph

Search for Another Location

Airport or City:

Trip Planner

Search our weather history database for the weather conditions in past years. The results will help you decide how hot, cold, wet, or windy it might be!

Date:

Astronomy

Sep. 12, 2013 Rise Set
Actual Time 7:06 AM CDT 7:49 PM CDT
Civil Twilight 6:35 AM CDT 8:20 PM CDT
Nautical Twilight 5:58 AM CDT 8:57 PM CDT
Astronomical Twilight 5:19 AM CDT 9:36 PM CDT
Moon 3:02 PM CDT (9/12) No Moon Set
Length of Visible Light 13h 45m
Length of Day
12h 43m
Waxing Crescent, 50% of the Moon is Illuminated
Sep 12
Waxing Crescent
Sep 12
First Quarter
Sep 19
Full
Sep 26
Last Quarter
Oct 4
New

Hourly Weather History & Observations

Time (CDT) Temp. Windchill Dew Point Humidity Pressure Visibility Wind Dir Wind Speed Gust Speed Precip Events Conditions
12:15 AM 50.0 °F - 50.0 °F 100% 30.20 in 10.0 mi Calm Calm - N/A   Clear
12:35 AM 50.0 °F - 50.0 °F 100% 30.20 in 10.0 mi Calm Calm - N/A   Clear
12:55 AM 46.4 °F - 46.4 °F 100% 30.20 in 10.0 mi Calm Calm - N/A   Clear
1:15 AM 46.4 °F 45.2 °F 46.4 °F 100% 30.20 in 10.0 mi WNW 3.5 mph - N/A   Clear
1:35 AM 46.4 °F 45.2 °F 46.4 °F 100% 30.21 in 10.0 mi NW 3.5 mph - N/A   Clear
1:55 AM 46.4 °F 44.3 °F 46.4 °F 100% 30.21 in 10.0 mi WNW 4.6 mph - N/A   Clear
2:15 AM 46.4 °F 45.2 °F 46.4 °F 100% 30.22 in 10.0 mi NW 3.5 mph - N/A   Clear
2:35 AM 46.4 °F 45.2 °F 46.4 °F 100% 30.22 in 10.0 mi WNW 3.5 mph - N/A   Clear
2:55 AM 44.6 °F - 44.6 °F 100% 30.21 in 10.0 mi Calm Calm - N/A   Clear
3:15 AM 46.4 °F 45.2 °F 46.4 °F 100% 30.22 in 10.0 mi NW 3.5 mph - N/A   Clear
3:35 AM 44.6 °F - 44.6 °F 100% 30.22 in 10.0 mi Calm Calm - N/A   Clear
3:55 AM 46.4 °F 45.2 °F 46.4 °F 100% 30.23 in 10.0 mi NNE 3.5 mph - N/A Rain Light Rain
4:15 AM 46.4 °F - 46.4 °F 100% 30.23 in 10.0 mi Calm Calm - N/A Rain Light Rain
4:35 AM 46.4 °F 44.3 °F 46.4 °F 100% 30.24 in 10.0 mi North 4.6 mph - 0.01 in Rain Light Rain
4:55 AM 46.4 °F 45.2 °F 46.4 °F 100% 30.25 in 10.0 mi NNW 3.5 mph - 0.02 in Rain Light Rain
5:15 AM 44.6 °F 43.1 °F 44.6 °F 100% 30.25 in 10.0 mi NNW 3.5 mph - N/A Rain Light Rain
5:35 AM 44.6 °F 43.1 °F 44.6 °F 100% 30.25 in 10.0 mi NW 3.5 mph - 0.01 in Rain Light Rain
5:55 AM 44.6 °F 43.1 °F 44.6 °F 100% 30.25 in 10.0 mi North 3.5 mph - 0.02 in Rain Light Rain
6:15 AM 44.6 °F - 44.6 °F 100% 30.25 in 10.0 mi Calm Calm - N/A Rain Light Rain
6:35 AM 42.8 °F - 42.8 °F 100% 30.26 in 10.0 mi Calm Calm - N/A   Clear
6:55 AM 44.6 °F - 44.6 °F 100% 30.26 in 10.0 mi Calm Calm - N/A   Clear
7:15 AM 42.8 °F 41.1 °F 42.8 °F 100% 30.27 in 8.0 mi NNW 3.5 mph - N/A   Clear
7:35 AM 42.8 °F - 42.8 °F 100% 30.28 in 10.0 mi Calm Calm - N/A   Clear
7:55 AM 46.4 °F - 46.4 °F 100% 30.28 in 9.0 mi Calm Calm - N/A Rain Light Rain
8:15 AM 50.0 °F - 50.0 °F 100% 30.29 in 10.0 mi North 4.6 mph - N/A Rain Light Rain
8:35 AM 50.0 °F - 50.0 °F 100% 30.29 in 10.0 mi North 6.9 mph - 0.01 in Rain Light Rain
8:55 AM 53.6 °F - 53.6 °F 100% 30.30 in 10.0 mi North 4.6 mph - 0.02 in Rain Light Rain
9:15 AM 55.4 °F - 55.4 °F 100% 30.30 in 10.0 mi North 4.6 mph - N/A Rain Light Rain
9:35 AM 57.2 °F - 55.4 °F 94% 30.31 in 10.0 mi North 4.6 mph - N/A   Clear
9:55 AM 59.0 °F - 55.4 °F 88% 30.31 in 10.0 mi NNE 5.8 mph - N/A   Clear
10:15 AM 59.0 °F - 55.4 °F 88% 30.32 in 10.0 mi NE 4.6 mph - N/A   Clear
10:35 AM 62.6 °F - 55.4 °F 77% 30.32 in 10.0 mi NNE 4.6 mph - N/A   Clear
10:55 AM 62.6 °F - 55.4 °F 77% 30.32 in 10.0 mi NE 6.9 mph - N/A   Clear
11:15 AM 62.6 °F - 55.4 °F 77% 30.32 in 10.0 mi NE 8.1 mph - N/A   Clear
11:35 AM 64.4 °F - 55.4 °F 73% 30.32 in 10.0 mi NNE 6.9 mph - N/A   Mostly Cloudy
11:55 AM 66.2 °F - 55.4 °F 68% 30.32 in 10.0 mi NNE 4.6 mph - N/A   Scattered Clouds
12:15 PM 64.4 °F - 55.4 °F 73% 30.32 in 10.0 mi North 8.1 mph - N/A   Scattered Clouds
12:35 PM 66.2 °F - 53.6 °F 64% 30.31 in 10.0 mi NNW 6.9 mph - N/A   Mostly Cloudy
12:55 PM 66.2 °F - 53.6 °F 64% 30.31 in 10.0 mi NNW 6.9 mph - N/A   Mostly Cloudy
1:15 PM 68.0 °F - 53.6 °F 60% 30.30 in 10.0 mi North 8.1 mph - N/A   Mostly Cloudy
1:35 PM 66.2 °F - 53.6 °F 64% 30.30 in 10.0 mi NE 8.1 mph - N/A   Scattered Clouds
1:55 PM 68.0 °F - 53.6 °F 60% 30.30 in 10.0 mi NW 8.1 mph - N/A   Scattered Clouds
2:15 PM 66.2 °F - 53.6 °F 64% 30.30 in 10.0 mi NNW 5.8 mph - N/A   Mostly Cloudy
2:35 PM 66.2 °F - 51.8 °F 60% 30.29 in 10.0 mi NNW 3.5 mph - N/A   Scattered Clouds
2:55 PM 68.0 °F - 53.6 °F 60% 30.29 in 10.0 mi North 9.2 mph - N/A   Scattered Clouds
3:15 PM 68.0 °F - 50.0 °F 52% 30.28 in 10.0 mi North 6.9 mph - N/A   Clear
3:35 PM 68.0 °F - 50.0 °F 52% 30.28 in 10.0 mi North 6.9 mph - N/A   Partly Cloudy
3:55 PM 68.0 °F - 50.0 °F 52% 30.27 in 10.0 mi NNW 10.4 mph - N/A   Scattered Clouds
4:15 PM 68.0 °F - 48.2 °F 49% 30.27 in 10.0 mi WNW 6.9 mph - N/A   Scattered Clouds
4:35 PM 68.0 °F - 48.2 °F 49% 30.26 in 10.0 mi North 8.1 mph - N/A   Clear
4:55 PM 68.0 °F - 48.2 °F 49% 30.26 in 10.0 mi NNE 5.8 mph - N/A   Partly Cloudy
5:15 PM 68.0 °F - 48.2 °F 49% 30.25 in 10.0 mi North 5.8 mph - N/A   Clear
5:35 PM 68.0 °F - 48.2 °F 49% 30.25 in 10.0 mi NNW 8.1 mph - N/A   Clear
5:55 PM 68.0 °F - 48.2 °F 49% 30.25 in 10.0 mi North 4.6 mph - N/A   Clear
6:15 PM 68.0 °F - 48.2 °F 49% 30.25 in 10.0 mi North 10.4 mph - N/A   Clear
6:35 PM 66.2 °F - 50.0 °F 56% 30.25 in 10.0 mi North 8.1 mph - N/A   Partly Cloudy
6:55 PM 66.2 °F - 48.2 °F 52% 30.25 in 10.0 mi North 6.9 mph - N/A   Clear
7:15 PM 64.4 °F - 48.2 °F 56% 30.25 in 10.0 mi North 6.9 mph - N/A   Clear
7:35 PM 62.6 °F - 51.8 °F 68% 30.25 in 10.0 mi NNE 5.8 mph - N/A   Clear
7:55 PM 59.0 °F - 53.6 °F 82% 30.25 in 10.0 mi North 3.5 mph - N/A   Clear
8:15 PM 59.0 °F - 53.6 °F 82% 30.25 in 10.0 mi North 5.8 mph - N/A   Clear
8:35 PM 57.2 °F - 55.4 °F 94% 30.25 in 10.0 mi North 3.5 mph - N/A   Clear
8:55 PM 55.4 °F - 53.6 °F 94% 30.25 in 10.0 mi NNW 3.5 mph - N/A   Clear
9:15 PM 53.6 °F - 51.8 °F 94% 30.25 in 10.0 mi Calm Calm - N/A   Clear
9:35 PM 50.0 °F - 50.0 °F 100% 30.26 in 10.0 mi Calm Calm - N/A   Clear
9:55 PM 53.6 °F - 51.8 °F 94% 30.25 in 10.0 mi Calm Calm - N/A   Clear
10:15 PM 51.8 °F - 50.0 °F 94% 30.25 in 10.0 mi Calm Calm - N/A   Clear
10:35 PM 48.2 °F - 48.2 °F 100% 30.25 in 10.0 mi Calm Calm - N/A   Clear
10:55 PM 46.4 °F - 46.4 °F 100% 30.25 in 10.0 mi Calm Calm - N/A   Clear
11:15 PM 48.2 °F - 48.2 °F 100% 30.25 in 10.0 mi Calm Calm - N/A   Clear
11:35 PM 48.2 °F - 48.2 °F 100% 30.25 in 10.0 mi Calm Calm - N/A   Clear
11:55 PM 46.4 °F - 46.4 °F 100% 30.25 in 10.0 mi Calm Calm - N/A   Clear